KG4QXF Weather Reports


time (UTC)temp
F
wind
direction
speed
knots
gust
knots
rain 1hr
in
rain 24hr
in
rain mn
in
humidity
%
barometer
mb
20260507052429 74 171 2.6 3.5 0.00 0.00 0.00 86 1015.9
20260507051926 74 149 2.6 6.1 0.00 0.00 0.00 86 1015.8
20260507051424 74 241 0.9 7.8 0.00 0.00 0.00 86 1015.7
20260507050921 74 82 1.7 7.0 0.00 0.00 0.00 87 1015.8
20260507050417 74 75 0.0 2.6 0.00 0.00 0.00 87 1016.2
20260507045914 74 132 1.7 2.6 0.00 0.00 0.00 87 1016.3
20260507045411 74 101 2.6 2.6 0.00 0.00 0.00 87 1016.1
20260507044908 74 153 1.7 2.6 0.00 0.00 0.00 87 1016.0
20260507044405 74 213 0.9 2.6 0.00 0.00 0.00 87 1016.1
20260507043901 74 209 0.0 1.7 0.00 0.00 0.00 87 1016.2
20260507043357 74 168 0.0 5.2 0.00 0.00 0.00 87 1016.1
20260507042853 74 179 1.7 7.0 0.00 0.00 0.00 87 1016.1
20260507042350 74 176 0.9 5.2 0.00 0.00 0.00 87 1016.1
20260507041846 74 145 1.7 5.2 0.00 0.00 0.00 87 1016.0
20260507041343 74 161 2.6 7.0 0.00 0.00 0.00 88 1016.2
20260507040840 74 158 3.5 5.2 0.00 0.00 0.00 88 1016.0
20260507040336 74 80 1.7 7.8 0.00 0.00 0.00 88 1016.0
20260507035832 74 176 2.6 5.2 0.00 0.00 0.00 88 1016.0
20260507035328 74 121 1.7 6.1 0.00 0.00 0.00 88 1015.9
20260507034826 74 154 1.7 3.5 0.00 0.00 0.00 88 1015.7
20260507034322 73 160 0.9 3.5 0.00 0.00 0.00 88 1015.9
20260507033821 73 111 1.7 2.6 0.00 0.00 0.00 89 1015.6
20260507033318 73 147 3.5 3.5 0.00 0.00 0.00 89 1015.6
20260507032815 73 127 1.7 5.2 0.00 0.00 0.00 89 1015.8
20260507032311 73 178 0.0 1.7 0.00 0.00 0.00 89 1015.6
20260507031808 73 190 0.0 5.2 0.00 0.00 0.00 89 1015.9
20260507031305 73 171 0.0 2.6 0.00 0.00 0.00 89 1015.8
20260507030801 73 123 0.0 1.7 0.00 0.00 0.00 90 1015.4
20260507030259 73 181 2.6 3.5 0.00 0.00 0.00 90 1015.5
20260507025756 73 78 0.9 3.5 0.00 0.00 0.00 89 1015.8
20260507025253 73 177 0.9 3.5 0.00 0.00 0.00 90 1016.1
20260507024751 73 176 1.7 3.5 0.00 0.00 0.00 90 1015.8
20260507024248 73 102 0.0 2.6 0.00 0.00 0.00 90 1016.0
20260507023743 73 169 0.0 2.6 0.00 0.00 0.00 90 1015.4
20260507023240 73 147 0.9 3.5 0.00 0.00 0.00 90 1015.3
20260507022738 73 197 1.7 2.6 0.00 0.00 0.00 90 1015.3
20260507022233 73 122 1.7 6.1 0.00 0.00 0.00 89 1015.6
20260507021730 73 157 1.7 5.2 0.00 0.00 0.00 89 1015.5
20260507021225 73 337 0.9 3.5 0.00 0.00 0.00 89 1015.6
20260507020724 73 134 3.5 3.5 0.00 0.00 0.00 89 1016.1
20260507020220 73 140 3.5 5.2 0.00 0.00 0.00 89 1016.1
20260507015718 73 126 0.9 5.2 0.00 0.00 0.00 89 1016.1
20260507015215 73 142 2.6 7.0 0.00 0.00 0.00 89 1016.0
20260507014706 73 157 0.9 3.5 0.00 0.00 0.00 89 1015.9
20260507014202 73 147 1.7 5.2 0.00 0.00 0.00 89 1016.0
20260507013659 73 154 0.9 5.2 0.00 0.00 0.00 89 1016.0
20260507013157 73 169 0.9 5.2 0.00 0.00 0.00 89 1016.0
20260507012654 73 84 0.9 2.6 0.00 0.00 0.00 89 1015.9
20260507012149 73 168 2.6 3.5 0.00 0.00 0.00 89 1016.3
20260507011647 73 202 0.0 3.5 0.00 0.00 0.00 89 1016.3
20260507011143 73 142 0.9 7.8 0.00 0.00 0.00 89 1016.6
20260507010638 73 151 3.5 3.5 0.00 0.00 0.00 89 1016.4
20260507010134 73 99 0.9 2.6 0.00 0.00 0.00 89 1016.5
20260507005632 73 108 2.6 3.5 0.00 0.00 0.00 89 1016.4
20260507005128 73 157 2.6 5.2 0.00 0.00 0.00 89 1016.3
20260507004625 73 166 4.3 5.2 0.00 0.00 0.00 89 1016.3
20260507004122 73 149 0.9 5.2 0.00 0.00 0.00 89 1016.1
20260507003619 73 162 0.9 1.7 0.00 0.00 0.00 89 1016.2
20260507003114 73 113 0.0 5.2 0.00 0.00 0.00 89 1016.2
20260507002610 73 145 1.7 7.0 0.00 0.00 0.00 88 1016.2
20260507002106 73 166 1.7 3.5 0.00 0.00 0.00 88 1016.0
20260507001603 73 131 5.2 7.0 0.00 0.00 0.00 88 1016.4
20260507001101 73 153 1.7 3.5 0.00 0.00 0.00 87 1016.3
20260507000556 73 152 0.9 6.1 0.00 0.00 0.00 87 1016.3
20260507000052 73 174 0.9 5.2 0.00 0.00 0.00 86 1016.1
20260506235550 74 157 2.6 3.5 0.00 0.00 0.00 86 1016.6
20260506235045 74 112 2.6 3.5 0.00 0.00 0.00 86 1016.3
20260506234543 74 137 0.9 7.0 0.00 0.00 0.00 85 1016.4
20260506234039 74 147 1.7 5.2 0.00 0.00 0.00 84 1016.3
20260506233537 74 169 1.7 7.0 0.00 0.00 0.00 84 1016.2
20260506233033 74 169 1.7 3.5 0.00 0.00 0.00 83 1016.2
20260506232529 74 148 1.7 3.5 0.00 0.00 0.00 82 1016.1
20260506232024 74 113 0.0 1.7 0.00 0.00 0.00 82 1016.2
20260506231522 74 141 5.2 8.7 0.00 0.00 0.00 81 1016.4
20260506231015 74 153 1.7 2.6 0.00 0.00 0.00 82 1016.5
20260506230510 74 156 0.9 3.5 0.00 0.00 0.00 82 1016.5
20260506230009 74 203 0.9 1.7 0.00 0.00 0.00 82 1016.3
20260506225505 75 119 0.9 6.1 0.00 0.00 0.00 82 1016.2
20260506225001 74 148 1.7 5.2 0.00 0.00 0.00 82 1016.3
20260506224458 74 114 0.9 6.1 0.00 0.00 0.00 81 1016.4
20260506223955 75 30 3.5 7.8 0.00 0.00 0.00 81 1016.3
20260506223451 75 147 7.8 13.0 0.00 0.00 0.00 80 1016.2
20260506222948 75 119 3.5 8.7 0.00 0.00 0.00 80 1016.0
20260506222444 75 86 0.9 7.8 0.00 0.00 0.00 79 1015.9
20260506221941 76 135 1.7 6.1 0.00 0.00 0.00 79 1016.1
20260506221438 76 135 4.3 7.8 0.00 0.00 0.00 78 1015.9
20260506220936 77 103 0.9 3.5 0.00 0.00 0.00 78 1015.9
20260506220431 76 69 0.9 6.1 0.00 0.00 0.00 77 1016.2
20260506215928 77 34 1.7 3.5 0.00 0.00 0.00 76 1016.0
20260506215424 76 162 1.7 7.0 0.00 0.00 0.00 77 1016.1
20260506214920 76 90 2.6 5.2 0.00 0.00 0.00 78 1016.4
20260506214417 76 139 1.7 3.5 0.00 0.00 0.00 77 1016.2
20260506213915 76 150 3.5 7.8 0.00 0.00 0.00 77 1016.4
20260506213413 76 198 0.9 3.5 0.00 0.00 0.00 77 1016.5
20260506212910 76 187 7.0 9.6 0.00 0.00 0.00 77 1016.4
20260506212405 77 148 5.2 8.7 0.00 0.00 0.00 76 1016.3
20260506211900 77 140 2.6 7.8 0.00 0.00 0.00 76 1016.5
20260506211357 77 144 1.7 5.2 0.00 0.00 0.00 76 1016.4
20260506210854 77 180 2.6 8.7 0.00 0.00 0.00 76 1016.4
20260506210351 77 149 3.5 6.1 0.00 0.00 0.00 76 1016.4
20260506205848 77 152 2.6 8.7 0.00 0.00 0.00 75 1016.4
20260506205344 78 173 0.9 6.1 0.00 0.00 0.00 74 1016.5
20260506204840 78 121 5.2 8.7 0.00 0.00 0.00 75 1016.5
20260506204338 79 170 0.9 5.2 0.00 0.00 0.00 73 1016.3
20260506203836 78 139 2.6 12.2 0.00 0.00 0.00 73 1016.3
20260506203332 78 184 2.6 6.1 0.00 0.00 0.00 71 1016.3
20260506202829 79 184 2.6 6.1 0.00 0.00 0.00 71 1016.9
20260506202327 79 104 2.6 8.7 0.00 0.00 0.00 72 1016.7
20260506201823 79 325 2.6 6.1 0.00 0.00 0.00 71 1016.9
20260506201321 79 190 6.1 7.8 0.00 0.00 0.00 71 1016.6
20260506200817 79 86 1.7 5.2 0.00 0.00 0.00 72 1016.8
20260506200313 78 171 1.7 8.7 0.00 0.00 0.00 73 1016.8
20260506195809 78 115 1.7 7.8 0.00 0.00 0.00 74 1016.8
20260506195307 79 163 1.7 5.2 0.00 0.00 0.00 72 1016.9
20260506194804 78 98 1.7 2.6 0.00 0.00 0.00 72 1017.1
20260506194300 78 238 2.6 8.7 0.00 0.00 0.00 73 1016.8
20260506193758 79 119 4.3 7.8 0.00 0.00 0.00 72 1017.1
20260506193254 79 36 1.7 7.8 0.00 0.00 0.00 72 1017.1
20260506192750 80 155 2.6 5.2 0.00 0.00 0.00 72 1017.1
20260506192248 81 99 3.5 6.1 0.00 0.00 0.00 68 1017.1
20260506191744 79 122 3.5 3.5 0.00 0.00 0.00 69 1017.2
20260506191240 81 165 6.1 7.8 0.00 0.00 0.00 69 1017.3
20260506190738 81 141 3.5 7.0 0.00 0.00 0.00 67 1017.3
20260506190234 80 137 1.7 5.2 0.00 0.00 0.00 68 1017.5
20260506185732 80 167 2.6 6.1 0.00 0.00 0.00 69 1017.7
20260506185228 82 144 0.0 1.7 0.00 0.00 0.00 68 1017.7
20260506184725 80 278 3.5 3.5 0.00 0.00 0.00 69 1017.8
20260506184223 80 165 1.7 5.2 0.00 0.00 0.00 71 1017.9
20260506183719 80 158 3.5 3.5 0.00 0.00 0.00 70 1018.2
20260506183215 80 138 4.3 5.2 0.00 0.00 0.00 70 1018.2
20260506182712 80 175 1.7 3.5 0.00 0.00 0.00 69 1018.3
20260506182209 80 143 7.0 7.8 0.00 0.00 0.00 69 1018.2
20260506181707 80 209 3.5 7.0 0.00 0.00 0.00 70 1018.0
20260506181204 80 175 1.7 5.2 0.00 0.00 0.00 71 1018.2
20260506180702 80 156 0.9 5.2 0.00 0.00 0.00 70 1018.4
20260506180157 80 200 2.6 6.1 0.00 0.00 0.00 71 1018.1
20260506175654 80 187 3.5 7.0 0.00 0.00 0.00 69 1018.2
20260506175151 79 179 2.6 5.2 0.00 0.00 0.00 71 1018.4
20260506174648 80 126 2.6 6.1 0.00 0.00 0.00 71 1018.4
20260506174145 80 168 2.6 7.8 0.00 0.00 0.00 70 1018.6
20260506173644 79 185 0.9 2.6 0.00 0.00 0.00 72 1018.5
20260506173140 79 204 3.5 6.1 0.00 0.00 0.00 71 1018.7
20260506172637 79 167 2.6 5.2 0.00 0.00 0.00 70 1018.6
20260506172133 80 100 1.7 3.5 0.00 0.00 0.00 69 1018.8
20260506171631 80 90 2.6 7.8 0.00 0.00 0.00 69 1018.6
20260506171129 80 142 3.5 5.2 0.00 0.00 0.00 67 1018.7
20260506170626 81 188 5.2 7.8 0.00 0.00 0.00 67 1018.9
20260506170122 82 153 1.7 6.1 0.00 0.00 0.00 65 1018.9
20260506165621 82 174 0.9 1.7 0.00 0.00 0.00 65 1018.8
20260506165111 81 136 5.2 7.8 0.00 0.00 0.00 67 1018.5
20260506164609 82 42 0.0 2.6 0.00 0.00 0.00 66 1018.9
20260506164106 82 75 1.7 1.7 0.00 0.00 0.00 66 1018.7
20260506163602 80 202 4.3 6.1 0.00 0.00 0.00 66 1018.8
20260506163057 81 179 3.5 7.0 0.00 0.00 0.00 65 1018.9
20260506162554 81 139 2.6 5.2 0.00 0.00 0.00 66 1018.8
20260506162051 80 183 3.5 6.1 0.00 0.00 0.00 65 1019.0
20260506161548 80 211 4.3 6.1 0.00 0.00 0.00 65 1019.2
20260506161040 79 172 2.6 7.0 0.00 0.00 0.00 65 1019.1
20260506160537 78 161 4.3 6.1 0.00 0.00 0.00 66 1019.1
20260506160034 78 139 5.2 8.7 0.00 0.00 0.00 66 1019.0
20260506155533 78 98 4.3 6.1 0.00 0.00 0.00 64 1019.1
20260506153709 80 128 2.6 5.2 0.00 0.00 0.00 63 1019.2
20260506153207 80 145 2.6 7.0 0.00 0.00 0.00 63 1018.8
20260506152703 79 192 6.1 9.6 0.00 0.00 0.00 62 1019.2
20260506152201 80 196 1.7 6.1 0.00 0.00 0.00 62 1019.2
20260506151701 80 171 3.5 5.2 0.00 0.00 0.00 64 1019.4
20260506151156 79 166 2.6 3.5 0.00 0.00 0.00 65 1019.2
20260506150653 80 179 1.7 5.2 0.00 0.00 0.00 65 1019.1
20260506150150 81 136 3.5 5.2 0.00 0.00 0.00 62 1019.0
20260506145647 80 81 0.9 2.6 0.00 0.00 0.00 65 1019.2
20260506145144 78 191 1.7 6.1 0.00 0.00 0.00 66 1019.1
20260506144642 79 160 2.6 3.5 0.00 0.00 0.00 67 1019.0
20260506144138 79 111 1.7 3.5 0.00 0.00 0.00 67 1018.9
20260506143635 78 170 1.7 5.2 0.00 0.00 0.00 67 1018.8
20260506143134 78 134 3.5 6.1 0.00 0.00 0.00 69 1018.7
20260506142632 78 119 4.3 8.7 0.00 0.00 0.00 68 1018.7
20260506142129 77 105 0.9 2.6 0.00 0.00 0.00 71 1018.7
20260506141627 77 180 1.7 3.5 0.00 0.00 0.00 71 1018.8
20260506141125 76 159 0.9 3.5 0.00 0.00 0.00 73 1019.1
20260506140622 76 123 1.7 6.1 0.00 0.00 0.00 75 1018.8
20260506140119 75 174 1.7 3.5 0.00 0.00 0.00 75 1018.9
20260506135616 75 111 3.5 7.0 0.00 0.00 0.00 75 1018.6
20260506135112 75 128 1.7 2.6 0.00 0.00 0.00 76 1018.4
20260506134609 75 156 1.7 3.5 0.00 0.00 0.00 76 1018.8
20260506134104 74 128 1.7 7.0 0.00 0.00 0.00 77 1018.9
20260506133602 74 144 2.6 5.2 0.00 0.00 0.00 77 1018.8
20260506133059 74 186 1.7 7.0 0.00 0.00 0.00 78 1018.8
20260506132556 73 151 3.5 6.1 0.00 0.00 0.00 78 1018.6
20260506132053 74 140 0.9 7.0 0.00 0.00 0.00 79 1018.6
20260506131551 73 187 1.7 1.7 0.00 0.00 0.00 80 1018.5
20260506131047 74 140 4.3 6.1 0.00 0.00 0.00 79 1018.5
20260506130544 73 83 0.0 0.9 0.00 0.00 0.00 80 1018.6
20260506130041 73 113 0.9 5.2 0.00 0.00 0.00 79 1018.5
20260506125540 73 124 0.9 1.7 0.00 0.00 0.00 80 1018.5
20260506125037 72 161 1.7 3.5 0.00 0.00 0.00 80 1018.5
20260506124535 72 126 0.9 5.2 0.00 0.00 0.00 81 1018.3
20260506124032 72 177 1.7 2.6 0.00 0.00 0.00 81 1018.1
20260506123530 72 147 3.5 6.1 0.00 0.00 0.00 81 1018.3
20260506123028 71 168 0.9 2.6 0.00 0.00 0.00 81 1018.6
20260506122524 71 142 1.7 1.7 0.00 0.00 0.00 82 1018.4
20260506122023 71 168 0.9 2.6 0.00 0.00 0.00 83 1018.3
20260506121519 71 152 1.7 5.2 0.00 0.00 0.00 84 1018.3
20260506121016 71 159 0.9 3.5 0.00 0.00 0.00 85 1018.3
20260506120514 70 158 0.9 3.5 0.00 0.00 0.00 86 1018.3
20260506120011 69 102 0.0 0.9 0.00 0.00 0.00 89 1018.3
20260506115509 68 156 0.9 1.7 0.00 0.00 0.00 92 1018.2
20260506115007 67 152 1.7 1.7 0.00 0.00 0.00 95 1018.1
20260506114504 66 153 0.0 1.7 0.00 0.00 0.00 97 1018.0
20260506114003 65 134 0.0 0.9 0.00 0.00 0.00 97 1018.1
20260506113500 65 196 0.0 0.0 0.00 0.00 0.00 98 1018.0
20260506112956 64 178 0.0 0.9 0.00 0.00 0.00 98 1018.0
20260506112454 64 220 0.0 0.0 0.00 0.00 0.00 98 1017.8
20260506111951 63 221 0.0 0.0 0.00 0.00 0.00 98 1017.9
20260506111449 63 221 0.0 0.0 0.00 0.00 0.00 98 1018.1
20260506110946 63 221 0.0 0.0 0.00 0.00 0.00 97 1017.9
20260506110444 63 223 0.0 0.0 0.00 0.00 0.00 97 1017.7
20260506105940 62 218 0.0 0.0 0.00 0.00 0.00 97 1017.9
20260506105436 62 217 0.0 0.0 0.00 0.00 0.00 97 1017.9
20260506104934 62 216 0.0 0.0 0.00 0.00 0.00 97 1017.8
20260506104432 62 243 0.0 0.0 0.00 0.00 0.00 97 1017.7
20260506103930 62 247 0.0 0.0 0.00 0.00 0.00 97 1017.7
20260506103427 62 218 0.0 0.0 0.00 0.00 0.00 97 1018.0
20260506102924 62 215 0.0 0.0 0.00 0.00 0.00 97 1017.8
20260506102422 62 207 0.0 0.0 0.00 0.00 0.00 96 1017.5
20260506101919 62 198 0.0 1.7 0.00 0.00 0.00 96 1017.5
20260506101414 62 169 0.0 0.0 0.00 0.00 0.00 96 1017.6
20260506100913 62 169 0.0 0.0 0.00 0.00 0.00 96 1017.6
20260506100410 62 169 0.0 0.0 0.00 0.00 0.00 96 1017.5
20260506095908 63 169 0.0 0.0 0.00 0.00 0.00 96 1017.4
20260506095406 63 169 0.0 0.0 0.00 0.00 0.00 96 1017.5
20260506094902 63 169 0.0 0.0 0.00 0.00 0.00 95 1017.7
20260506094401 63 169 0.0 0.0 0.00 0.00 0.00 95 1017.4
20260506093858 63 168 0.0 0.0 0.00 0.00 0.00 95 1017.5
20260506093356 63 168 0.0 0.0 0.00 0.00 0.00 95 1017.5
20260506092854 63 168 0.0 0.0 0.00 0.00 0.00 94 1017.4
20260506092351 64 168 0.0 0.0 0.00 0.00 0.00 94 1017.6
20260506091847 64 168 0.0 0.0 0.00 0.00 0.00 93 1017.7
20260506091345 64 167 0.0 0.0 0.00 0.00 0.00 93 1017.6
20260506090837 64 167 0.0 0.0 0.00 0.00 0.00 93 1017.6
20260506090335 64 167 0.0 0.0 0.00 0.00 0.00 92 1017.5
20260506085831 64 167 0.0 0.0 0.00 0.00 0.00 91 1017.5
20260506085327 65 166 0.0 0.0 0.00 0.00 0.00 91 1017.6
20260506084824 65 172 0.0 0.0 0.00 0.00 0.00 90 1017.7
20260506084320 65 180 0.0 0.0 0.00 0.00 0.00 90 1017.7
20260506083817 66 177 0.0 0.9 0.00 0.00 0.00 89 1017.9
20260506083314 66 188 0.0 0.0 0.00 0.00 0.00 89 1017.6
20260506082807 66 179 0.0 0.0 0.00 0.00 0.00 88 1017.7
20260506082304 67 148 0.0 1.7 0.00 0.00 0.00 88 1017.7
20260506081759 66 165 0.0 0.9 0.00 0.00 0.00 88 1017.7
20260506081257 67 163 0.0 1.7 0.00 0.00 0.00 88 1017.5
20260506080755 67 159 0.0 0.9 0.00 0.00 0.00 88 1017.6
20260506080251 67 167 0.0 0.9 0.00 0.00 0.00 88 1017.6
20260506073235 67 171 0.0 0.9 0.00 0.00 0.00 87 1017.4
20260506072732 67 163 0.9 0.9 0.00 0.00 0.00 87 1017.4
20260506072229 67 163 0.9 1.7 0.00 0.00 0.00 86 1017.3
20260506071727 67 161 0.9 2.6 0.00 0.00 0.00 86 1017.4
20260506071225 67 160 0.0 2.6 0.00 0.00 0.00 86 1017.3
20260506070721 67 172 0.0 1.7 0.00 0.00 0.00 85 1017.5
20260506070218 67 174 0.0 1.7 0.00 0.00 0.00 85 1017.4
20260506062155 67 156 0.9 1.7 0.00 0.00 0.00 86 1017.8
20260506061651 66 172 0.0 0.9 0.00 0.00 0.00 86 1017.6
20260506061149 66 176 0.0 0.0 0.00 0.00 0.00 87 1017.7
20260506060647 66 157 0.0 0.0 0.00 0.00 0.00 87 1017.8
20260506060144 66 192 0.0 0.0 0.00 0.00 0.00 87 1017.7